Pagina principale
METAR-TAF:

METAR-TAF

Aeroporti :

Payerne, Svizzera

latitudine: 46-49N, longitudine: 006-57E, altezza: 490 m

Osservazione

Il bollettino è stato emesso 33 minuti fa, alle 11:20 UTC
Vento 4 kt da nord-est, variando fra nord e est
Temperature 0°C
Umidità 74%
Pressione 1018 hPa
Visibilità: 7000 m
Poco nuvoloso ad un'altezza di 6600 ft

METAR: LSMP 211120Z 05004KT 010V090 7000 FEW066 00/M04 Q1018 RMK WHT

Ora: 12:53 (11:53 UTC)


TAF: mancante

Osservazioni e previsioni meteorologiche di più di 4000 aeroporti (messaggi METAR e TAF).

Le stazioni disponibili sono rappresentate dai dischi gialli e rossi sulla carta.

Puntare il mouse per vedere il nome della stazione.

Clicca sopra per visualizzare le osservazioni e previsioni meteorologiche.

Per cambiare la mappa : fare clic sui pulsanti verdi con una croce nera per ingrandire, il pulsante verde con un trattino per diminuire, o sulla freccia verde per le mappe adiacenti.


METAR-TAF: